[[{"header":{"parameterUnit":"m.s-1","parameterCategory":1,"la1":30.2991,"la2":30.254,"lo1":-89.0895,"lo2":-89.0444,"dy":0.0017,"dx":0.0017,"nx":28,"ny":28,"refTime":"2023-10-17T03:00:00:Z","depth":0,"parameterNumber":2,"parameterNumberName":"U-component_of_WINDS"},"data":[0,0,0,0,0,0,0,0,0,0,0,0,0,0,0,0,0,0,0,0,0,0,0,0,0,0,0,0,0,0,0,0,0,0,0,0,0,0,0,0,0,0,0,0,0,0,0,0,0,0,0,0,0,0,0,0,0,0,-0.7676,-0.7676,0,-0.7651,-0.7651,-0.7651,-0.7621,-0.762,-0.762,-0.7619,-0.7595,-0.7595,-0.7595,0,0,0,0,0,0,0,0,0,0,0,0,0,-0.7699,-0.7699,-0.7676,-0.7676,-0.7676,-0.7651,-0.7651,-0.7651,-0.7621,-0.762,-0.7619,-0.7619,-0.7595,-0.7595,-0.7595,0,0,0,0,0,0,0,0,0,0,0,0,0,-0.7683,-0.7699,-0.7676,-0.7658,-0.7656,-0.7652,-0.7651,-0.7651,-0.7621,-0.762,-0.7619,-0.7619,-0.7595,-0.7595,-0.7595,-0.7607,0,0,-0.7594,-0.7594,0,0,0,0,0,0,0,0,-0.7684,-0.7683,-0.7661,-0.7659,-0.7657,-0.7638,-0.765,-0.7636,-0.7621,-0.7634,-0.7619,-0.7618,-0.761,-0.7608,-0.7605,-0.7606,-0.7605,-0.7594,-0.7593,-0.7593,-0.7593,0,0,0,0,0,0,0,-0.7685,-0.7683,-0.7666,-0.766,-0.7658,-0.7651,-0.7648,-0.7648,-0.7626,-0.7633,-0.7631,-0.7628,-0.7609,-0.7606,-0.7605,-0.7605,-0.7594,-0.7593,-0.7593,-0.7593,-0.7615,-0.7616,0,0,0,0,0,0,-0.7689,-0.7685,-0.7667,-0.7666,-0.7669,-0.7651,-0.7648,-0.7645,-0.7626,-0.7623,-0.7629,-0.7627,-0.7607,-0.7605,-0.7604,-0.7618,-0.7593,-0.7593,-0.7593,-0.7614,-0.7615,-0.7616,0,0,0,0,0,0,-0.769,-0.7688,-0.7668,-0.7675,-0.7671,-0.7652,-0.7649,-0.7645,-0.7642,-0.7623,-0.7619,-0.7629,-0.7606,-0.7604,-0.7607,-0.7616,-0.7593,-0.7593,-0.7614,-0.7615,-0.7616,-0.7646,0,0,0,0,0,0,-0.7691,-0.7688,-0.7692,-0.7675,-0.7671,-0.7671,-0.7649,-0.7645,-0.7641,-0.7638,-0.7623,-0.762,-0.7605,-0.7607,-0.7606,-0.7616,-0.7592,-0.7613,-0.7614,-0.7615,-0.7644,-0.7648,-0.7651,0,0,0,0,0,-0.7691,-0.7702,-0.7693,-0.7691,-0.7676,-0.7672,-0.767,-0.7653,-0.7642,-0.7646,-0.7635,-0.762,-0.7616,-0.7608,-0.7606,-0.7616,-0.7612,-0.7614,-0.7615,-0.7642,-0.7647,-0.7651,0,0,0,0,0,0,-0.7721,-0.7699,-0.7689,-0.7694,-0.7685,-0.7667,-0.7671,-0.7658,-0.7653,-0.765,-0.763,-0.7627,-0.7632,-0.7624,-0.7616,-0.7628,-0.7612,-0.7613,-0.7632,-0.7637,-0.764,-0.7642,-0.7592,0,0,0,0,0,-0.7728,-0.7726,-0.7707,-0.7714,-0.771,-0.7692,-0.7689,-0.7677,-0.7667,-0.7663,-0.7651,-0.7643,-0.7639,-0.7638,-0.7634,-0.7642,-0.7639,-0.7648,-0.7652,-0.7655,-0.7657,-0.7662,-0.7666,-0.7622,-0.7622,-0.7622,0,0,-0.7743,-0.7731,-0.7731,-0.7719,-0.7711,-0.771,-0.7688,-0.7688,-0.7687,-0.7663,-0.7665,-0.7656,-0.7645,-0.7651,-0.7653,-0.7645,-0.7668,-0.7657,-0.766,-0.766,-0.7664,-0.7668,-0.7672,-0.7623,-0.7623,-0.7623,0,0,-0.777,-0.776,-0.7764,-0.7756,-0.7744,-0.7732,-0.7733,-0.7717,-0.771,-0.7711,-0.7694,-0.7693,-0.7687,-0.768,-0.7676,-0.7701,-0.7688,-0.77,-0.772,-0.7725,-0.7728,-0.7731,-0.7741,-0.7744,-0.7702,-0.7702,-0.7702,0,-0.779,-0.7787,-0.7768,-0.7769,-0.7765,-0.7743,-0.7748,-0.7741,-0.7728,-0.7726,-0.7717,-0.771,-0.7701,-0.7706,-0.7712,-0.7709,-0.771,-0.7702,-0.7729,-0.7732,-0.7734,-0.7743,-0.7747,-0.7704,-0.7703,-0.7703,-0.7703,0,-0.7813,-0.7811,-0.7816,-0.7804,-0.78,-0.7803,-0.7786,-0.7785,-0.7773,-0.7762,-0.7764,-0.7753,-0.7746,-0.7747,-0.7735,-0.775,-0.7745,-0.7733,-0.7716,-0.7741,-0.7748,-0.7752,-0.7706,-0.7705,-0.7705,-0.7705,0,0,-0.7857,-0.7835,-0.7837,-0.7832,-0.7817,-0.7815,-0.7818,-0.7811,-0.7811,-0.7803,-0.7805,-0.7801,-0.779,-0.7785,-0.7773,-0.7777,-0.7798,-0.7764,-0.7764,-0.7771,-0.7814,-0.7824,-0.7828,-0.7789,-0.779,-0.779,-0.7815,0,-0.7881,-0.7883,-0.7867,-0.7874,-0.7872,-0.7852,-0.7854,-0.7845,-0.7835,-0.7833,-0.7823,-0.782,-0.7805,-0.7803,-0.7806,-0.7795,-0.7807,-0.7793,-0.7792,-0.7792,-0.7795,-0.7832,-0.7842,-0.7866,-0.7818,-0.7819,-0.7819,0,-0.7909,-0.7903,-0.791,-0.7895,-0.7894,-0.7896,-0.7889,-0.7887,-0.7877,-0.787,-0.7865,-0.7851,-0.7853,-0.7837,-0.784,-0.7831,-0.783,-0.7824,-0.7825,-0.7824,-0.7807,-0.7833,-0.7873,-0.7877,-0.7824,-0.7823,-0.7823,0,-0.7942,-0.7935,-0.7938,-0.7934,-0.7916,-0.7919,-0.7912,-0.7901,-0.7898,-0.7892,-0.7891,-0.7885,-0.7882,-0.7879,-0.7864,-0.7854,-0.7869,-0.7852,-0.7863,-0.7864,-0.7868,-0.7868,-0.7909,-0.7866,-0.7866,-0.7866,-0.7866,0,-0.7971,-0.7976,-0.7952,-0.7954,-0.796,-0.7941,-0.7947,-0.7938,-0.7929,-0.7929,-0.7911,-0.7912,-0.7892,-0.7891,-0.788,-0.7885,-0.7883,-0.7878,-0.7875,-0.788,-0.788,-0.7879,-0.7877,-0.7867,-0.7867,-0.7867,-0.7866,0,-0.8008,-0.7992,-0.7995,-0.7978,-0.7974,-0.7979,-0.7965,-0.7966,-0.7956,-0.7956,-0.7956,-0.7939,-0.7937,-0.7921,-0.7916,-0.7908,-0.7917,-0.7911,-0.7921,-0.7919,-0.7931,-0.793,-0.7973,-0.7978,-0.7932,-0.7932,-0.7933,0,-0.8028,-0.8031,-0.8015,-0.8014,-0.8007,-0.8006,-0.8003,-0.7985,-0.7983,-0.7972,-0.7975,-0.7972,-0.7968,-0.7966,-0.7953,-0.7949,-0.7943,-0.7958,-0.7942,-0.7947,-0.7944,-0.7944,-0.7944,-0.7961,-0.7962,-0.7963,-0.7963,0,-0.8065,-0.8057,-0.8053,-0.8047,-0.8044,-0.8038,-0.8031,-0.8032,-0.8012,-0.8011,-0.8008,-0.8005,-0.8,-0.7997,-0.799,-0.7984,-0.7971,-0.7968,-0.7971,-0.7976,-0.7981,-0.7979,-0.793,-0.7967,-0.7967,-0.7966,-0.7966,-0.7966,-0.8094,-0.8096,-0.8085,-0.8082,-0.8075,-0.8069,-0.807,-0.8059,-0.8057,-0.805,-0.804,-0.8039,-0.803,-0.802,-0.8015,-0.8014,-0.8007,-0.801,-0.8011,-0.8012,-0.8015,-0.7981,-0.8013,-0.8013,-0.8013,-0.8013,-0.8013,0,-0.813,-0.8122,-0.8119,-0.811,-0.8108,-0.8095,-0.8087,-0.8086,-0.8086,-0.8078,-0.8074,-0.8072,-0.8069,-0.8056,-0.8052,-0.8054,-0.8048,-0.8054,-0.8054,-0.8053,-0.8022,-0.8021,-0.8059,-0.8059,-0.8059,-0.8059,-0.8059,-0.8059,-0.8149,-0.8152,-0.8143,-0.8143,-0.8135,-0.8134,-0.8131,-0.8126,-0.8119,-0.8117,-0.8114,-0.8106,-0.8097,-0.8092,-0.8089,-0.8085,-0.8085,-0.8093,-0.8087,-0.8059,-0.8055,-0.805,-0.8049,-0.8093,-0.8093,-0.8118,-0.8118,-0.8118]},{"header":{"parameterUnit":"m.s-1","parameterCategory":1,"la1":30.2991,"la2":30.254,"lo1":-89.0895,"lo2":-89.0444,"dy":0.0017,"dx":0.0017,"nx":28,"ny":28,"refTime":"2023-10-17T03:00:00:Z","depth":0,"parameterNumber":3,"parameterNumberName":"V-component_of_WINDS"},"data":[0,0,0,0,0,0,0,0,0,0,0,0,0,0,0,0,0,0,0,0,0,0,0,0,0,0,0,0,0,0,0,0,0,0,0,0,0,0,0,0,0,0,0,0,0,0,0,0,0,0,0,0,0,0,0,0,0,0,3.8839,3.8839,0,3.8877,3.8878,3.8878,3.8826,3.8824,3.8823,3.8821,3.8856,3.8858,3.8861,0,0,0,0,0,0,0,0,0,0,0,0,0,3.8716,3.8719,3.8839,3.8839,3.884,3.8877,3.8878,3.8878,3.8827,3.8824,3.8822,3.882,3.8855,3.8858,3.8861,0,0,0,0,0,0,0,0,0,0,0,0,0,3.8763,3.8719,3.8839,3.8819,3.8817,3.8877,3.8878,3.8878,3.8827,3.8824,3.8821,3.8819,3.8854,3.8858,3.8862,3.8942,0,0,3.8874,3.8876,0,0,0,0,0,0,0,0,3.8761,3.8768,3.8821,3.882,3.8819,3.8844,3.8847,3.8899,3.8828,3.8823,3.8821,3.8818,3.8854,3.8858,3.8871,3.8943,3.8945,3.8874,3.8877,3.8878,3.8879,0,0,0,0,0,0,0,3.8758,3.8766,3.8854,3.8822,3.8821,3.8806,3.881,3.8857,3.8853,3.8823,3.882,3.8825,3.8853,3.8867,3.8871,3.8945,3.8874,3.8878,3.888,3.8882,3.9083,3.9085,0,0,0,0,0,0,3.8757,3.8764,3.8853,3.8855,3.8782,3.8811,3.8815,3.8839,3.8853,3.8852,3.8828,3.8823,3.8862,3.8867,3.8872,3.8965,3.8878,3.8882,3.8884,3.908,3.9083,3.9087,0,0,0,0,0,0,3.8755,3.8766,3.8851,3.8808,3.8818,3.8816,3.8843,3.8841,3.8855,3.8856,3.8855,3.8843,3.886,3.8867,3.8924,3.8965,3.8884,3.8887,3.9076,3.9081,3.9085,3.9152,0,0,0,0,0,0,3.8752,3.8765,3.8797,3.881,3.8821,3.8904,3.8846,3.8844,3.8863,3.8857,3.887,3.887,3.8858,3.8919,3.8928,3.8969,3.8891,3.9072,3.9078,3.9084,3.9146,3.9158,3.9168,0,0,0,0,0,3.8747,3.8814,3.8799,3.881,3.886,3.8907,3.8913,3.8899,3.8867,3.8897,3.8897,3.8869,3.896,3.8925,3.8936,3.8978,3.907,3.9077,3.9083,3.9141,3.9156,3.9168,0,0,0,0,0,0,3.8804,3.8815,3.8798,3.8871,3.8889,3.8898,3.8936,3.8916,3.8942,3.8935,3.8915,3.8919,3.898,3.8985,3.8946,3.9055,3.9009,3.9018,3.905,3.9064,3.9075,3.9071,3.8894,0,0,0,0,0,3.8826,3.8864,3.8871,3.8934,3.8944,3.8939,3.8959,3.8947,3.8963,3.897,3.8975,3.8991,3.9022,3.9043,3.9073,3.9147,3.9148,3.9181,3.9193,3.9202,3.9209,3.9247,3.9261,3.9108,3.9108,3.9108,0,0,3.887,3.888,3.8906,3.8946,3.8958,3.8996,3.8945,3.8989,3.9016,3.8976,3.9031,3.9035,3.9051,3.9117,3.9146,3.9123,3.9252,3.921,3.9218,3.922,3.9255,3.9269,3.9282,3.9113,3.9112,3.9111,0,0,3.8969,3.8982,3.9035,3.9049,3.9068,3.9064,3.9077,3.9089,3.9091,3.9146,3.9116,3.9148,3.9204,3.9216,3.923,3.9333,3.9307,3.9343,3.9401,3.9438,3.9449,3.946,3.9495,3.9507,3.9351,3.9351,3.9351,0,3.902,3.9079,3.9065,3.911,3.9127,3.9095,3.9147,3.916,3.9188,3.92,3.9174,3.9242,3.9251,3.9318,3.9344,3.9357,3.9369,3.934,3.9449,3.946,3.9469,3.9502,3.9515,3.9355,3.9355,3.9354,3.9354,0,3.914,3.9181,3.9221,3.9249,3.9272,3.932,3.9312,3.9336,3.9322,3.932,3.9376,3.9385,3.9415,3.9431,3.9417,3.9496,3.948,3.9453,3.9405,3.9488,3.9518,3.9531,3.9361,3.9359,3.9358,3.9357,0,0,3.9275,3.9295,3.931,3.9322,3.934,3.9371,3.9417,3.9447,3.9467,3.9488,3.9524,3.9572,3.9546,3.9561,3.9549,3.9582,3.966,3.9549,3.9549,3.9567,3.9744,3.9764,3.9779,3.9644,3.9647,3.9649,3.9742,0,3.9372,3.9454,3.9442,3.952,3.9556,3.9525,3.9564,3.9579,3.9579,3.9608,3.9607,3.9641,3.9605,3.9614,3.9645,3.9644,3.9695,3.9637,3.9676,3.9677,3.9671,3.9795,3.9816,3.9904,3.9754,3.9756,3.9758,0,3.9497,3.9522,3.9603,3.9615,3.963,3.9666,3.9692,3.9721,3.9737,3.9734,3.9751,3.9733,3.9777,3.9731,3.979,3.9751,3.9767,3.9769,3.9772,3.9773,3.9721,3.9797,3.9932,3.9944,3.9777,3.9775,3.9774,0,3.9584,3.9639,3.9694,3.9705,3.9721,3.9747,3.9754,3.9767,3.9786,3.9808,3.9819,3.9847,3.9861,3.9882,3.987,3.9838,3.9931,3.9885,3.9928,3.9928,3.9947,3.9946,4.0084,3.9961,3.9961,3.9961,3.996,0,3.9693,3.9743,3.9733,3.9767,3.9821,3.9807,3.9861,3.9865,3.9877,3.9909,3.9884,3.9915,3.9899,3.9928,3.992,3.9969,3.9976,3.9973,3.997,3.9975,3.9975,3.9983,3.9975,3.9964,3.9963,3.9963,3.9962,0,3.9799,3.9795,3.9852,3.9863,3.9866,3.9906,3.9914,3.9944,3.9942,3.9984,3.9992,3.9989,4.0021,4.0013,4.0048,4.0042,4.0104,4.0094,4.0099,4.0096,4.0139,4.0134,4.0285,4.0303,4.0171,4.0172,4.0173,0,3.9868,3.9906,3.992,3.9941,3.995,3.9984,4.0002,3.999,4.001,4.003,4.0058,4.0089,4.0112,4.0166,4.0165,4.0192,4.0181,4.0232,4.0185,4.0187,4.0179,4.0176,4.0179,4.0241,4.0242,4.0244,4.0245,0,3.9989,3.9985,4.0014,4.0042,4.0065,4.0086,4.0105,4.0123,4.0111,4.0135,4.0168,4.0187,4.0223,4.0253,4.0278,4.0284,4.0262,4.026,4.0271,4.0275,4.0275,4.0273,4.0122,4.0256,4.0255,4.0254,4.0253,4.0253,4.0077,4.0108,4.0123,4.0156,4.0169,4.0186,4.0215,4.0217,4.0245,4.0274,4.0265,4.0303,4.0316,4.0346,4.0355,4.0384,4.0364,4.0381,4.0384,4.0388,4.0392,4.0272,4.0388,4.0388,4.0388,4.0387,4.0387,0,4.0195,4.0203,4.0233,4.026,4.0285,4.0264,4.0283,4.0305,4.0339,4.0354,4.0378,4.0416,4.0445,4.0447,4.0473,4.0495,4.0486,4.0503,4.05,4.0501,4.041,4.0396,4.051,4.051,4.051,4.051,4.051,4.051,4.0259,4.0311,4.0308,4.0365,4.0372,4.041,4.0423,4.0438,4.045,4.0493,4.0518,4.0519,4.0528,4.0555,4.058,4.058,4.059,4.061,4.0606,4.052,4.0508,4.0496,4.0483,4.0613,4.0613,4.0694,4.0695,4.0696]}]]